Location: Munkebjergskolens Observatorium
(55.3864°N, 10.3987°E)
Time: 05:16:45
(UTC+02:00)

KKS-1 - Pass Details

Date: 07 April 2023
Orbit: 633 x 644 km, 98.2° (Epoch: 31 May)

Event Time Altitude Azimuth Distance (km) Brightness Sun altitude
Rises 02:13:18 0° 5° (N) 2,946 ? -27.0°
Reaches altitude 10° 02:16:41 10° 337° (NNW) 2,033 ? -26.9°
Maximum altitude 02:18:34 13° 312° (NW) 1,856 ? -26.8°
Enters shadow 02:20:02 11° 292° (WNW) 1,962 ? -26.7°
